Location: Newark
(44.6768°N, 22.5302°E)
Time: 00:13:00
(UTC+00:00)

N. Korean satellite - Visible Passes

Search period start: 21 January 2022 00:00
Search period end: 31 January 2022 00:00
Orbit: 446 x 491 km, 97.3° (Epoch: 20 January)

Date Brightness Start Highest point End Pass type
(mag) Time Alt. Az. Time Alt. Az. Time Alt. Az.
21 Jan 8.3 03:33:15 10° NNE 03:35:05 27° NNE 03:35:05 27° NNE visible
21 Jan 8.5 05:08:07 10° NW 05:09:09 12° WNW 05:09:09 12° WNW visible
22 Jan 9.2 03:04:34 10° NE 03:06:00 18° ENE 03:06:00 18° ENE visible
22 Jan 7.8 04:37:41 10° NNW 04:40:04 23° NW 04:40:04 23° NW visible
23 Jan 7.0 04:08:06 10° N 04:10:59 44° NW 04:10:59 44° NW visible
24 Jan 7.2 03:38:53 10° NNE 03:41:54 53° NE 03:41:54 53° NE visible
24 Jan 8.6 05:14:34 10° NW 05:15:07 10° WNW 05:15:40 10° WNW visible
25 Jan 8.7 03:10:05 10° NE 03:12:49 27° E 03:12:49 27° E visible
25 Jan 7.8 04:43:28 10° NNW 04:46:14 21° WNW 04:46:52 20° W visible
26 Jan 9.8 02:42:05 10° ENE 02:43:43 13° E 02:43:43 13° E visible
26 Jan 6.8 04:13:44 10° N 04:17:13 44° WNW 04:17:48 40° W visible
27 Jan 6.6 03:44:25 10° NNE 03:48:04 78° ESE 03:48:43 57° S visible
28 Jan 8.3 03:15:28 10° NNE 03:18:47 32° E 03:19:40 28° SE visible
28 Jan 8.0 04:49:09 10° NNW 04:51:41 18° WNW 04:53:44 12° WSW visible
29 Jan 9.6 02:47:10 10° NE 02:49:21 15° E 02:50:38 13° ESE visible
29 Jan 7.0 04:19:15 10° N 04:22:39 37° WNW 04:24:41 20° SW visible
30 Jan 6.4 03:49:49 10° NNE 03:53:29 89° WNW 03:55:41 22° SSW visible
